Dewpoint
54 53 51 49 49 49 50 51 50 46 40 38 40 40 39 40 41 38 37 40 46 49 51 51 53 54 56 57 59 61 61 62 62 61 62 62 62 62 62 63 63 64 64
52 49 47 45 45 45 47 48 47 44 40 38 37 40 38 38 38 38 34 37 42 49 51 51 53 55 56 57 58 59 59 61 62 61 61 61 61 61 61 61 62 63 63
48 48 45 45 44 45 48 50 50 46 42 37 36 37 38 39 36 37 35 34 38 44 47 50 51 51 51 52 53 54 56 58 59 61 61 61 61 62 61 61 61 62 63
50 49 45 45 44 46 45 46 46 43 41 37 34 34 35 35 35 36 35 34 33 32 43 48 49 48 49 49 49 50 52 54 55 56 60 61 61 61 62 61 61 62 62
46 47 45 44 46 45 44 44 44 43 41 37 34 34 35 34 33 32 32 36 36 33 32 44 46 45 46 44 42 45 48 52 54 55 55 59 61 61 61 62 62 62 62
42 43 43 45 46 46 45 43 43 43 40 39 34 30 32 35 34 33 33 33 32 36 36 36 37 38 38 40 38 38 44 46 47 54 52 58 58 61 61 61 61 62 62
40 41 40 41 42 42 43 46 45 44 44 41 39 35 34 35 37 34 33 32 31 34 36 37 33 31 33 31 32 40 41 44 45 45 49 52 53 55 58 61 60 62 61
35 35 37 38 38 39 40 41 43 44 44 43 40 37 33 32 33 36 34 33 33 33 35 36 32 31 30 28 34 39 40 41 44 47 46 48 47 51 52 54 58 59 60
34 35 36 37 38 38 36 38 40 40 40 41 42 39 35 32 31 31 36 34 34 35 34 32 30 29 29 30 31 34 38 39 42 46 45 49 46 48 48 53 56 57 59
33 34 35 37 37 37 37 37 35 37 39 38 39 40 41 39 36 32 33 35 34 35 34 31 29 30 30 27 25 32 37 39 42 48 46 44 46 47 48 50 53 54 56
31 33 36 37 38 37 37 39 40 40 41 40 39 38 40 39 38 36 33 32 33 32 30 31 32 31 31 29 27 33 38 37 40 44 50 45 43 46 47 48 50 50 52
30 32 36 37 38 38 37 37 39 40 40 39 39 38 37 36 35 34 32 32 32 30 29 31 31 31 31 30 28 31 32 36 30 41 48 50 48 48 44 44 47 49 48
30 33 37 37 36 37 36 37 37 37 38 38 38 38 38 37 37 37 37 35 34 31 31 30 30 30 30 31 28 34 31 30 26 38 43 48 48 48 47 47 46 46 46
34 37 37 36 36 37 37 38 37 37 36 37 37 36 36 36 36 36 34 34 33 36 35 34 31 29 29 29 28 30 25 29 25 32 39 46 44 45 43 44 45 43 40
34 36 37 35 31 32 32 33 34 35 34 33 33 32 33 35 35 34 34 32 32 30 28 28 29 29 27 27 27 26 27 30 26 29 38 36 36 37 36 37 41 42 45
36 33 31 31 31 33 35 35 35 34 33 32 30 28 24 23 25 27 27 27 25 23 19 18 17 18 20 19 22 22 22 26 29 30 36 33 33 33 32 32 33 36 39
32 31 30 32 33 35 37 37 34 32 26 25 23 22 20 19 19 18 18 19 19 18 16 16 16 17 18 21 22 23 22 22 23 30 34 30 28 28 28 28 29 32 36
34 34 35 36 36 36 32 30 29 26 22 20 20 20 18 15 17 18 18 19 19 19 18 17 17 17 18 19 21 22 22 21 21 22 30 33 31 29 30 29 27 30 34
36 36 34 33 34 32 31 27 22 21 21 21 20 18 18 19 19 18 19 19 18 17 17 17 16 17 17 18 18 20 21 22 22 23 26 32 33 34 34 32 31 30 33
29 28 26 25 25 23 21 19 18 19 19 18 19 20 20 20 19 18 17 16 15 15 15 14 14 14 15 16 17 17 18 19 20 20 20 22 23 28 33 33 32 32 34
18 18 17 17 18 18 16 22 18 19 20 20 20 20 19 20 21 22 20 17 16 16 16 15 15 16 16 16 17 18 19 20 21 22 22 23 22 22 23 26 25 32 32
17 17 17 17 17 17 25 25 24 20 19 18 17 17 17 18 18 20 20 21 23 21 19 18 18 19 18 18 19 20 22 22 20 23 23 24 25 24 24 23 24 29 31
17 17 17 19 19 19 21 21 22 19 17 17 18 17 16 14 16 17 19 22 23 23 23 22 21 21 21 22 22 23 22 22 20 20 21 24 25 29 31 27 27 27 31
16 17 18 18 18 17 19 21 20 18 19 19 18 17 16 16 17 20 20 20 20 21 22 24 23 20 20 20 21 21 22 24 25 23 23 23 26 27 28 30 29 31 32
17 17 18 18 18 18 20 20 19 19 18 18 18 17 19 21 21 22 23 24 22 21 22 24 24 24 24 26 26 24 27 23 24 21 21 21 24 25 25 28 31 30 32
17 19 21 21 20 20 20 19 19 18 19 21 21 21 22 22 23 24 26 25 22 19 20 23 23 28 28 24 26 26 25 23 22 21 21 21 20 21 23 27 28 31 31
Wind_Speed
8 9 10 10 10 9 9 9 9 9 7 6 6 6 6 5 4 5 3 3 2 4 5 5 5 5 6 7 8 9 4 8 12 15 17 20 22 23 21 21 21 20 21
8 10 10 11 10 10 9 9 9 10 8 7 7 7 7 6 5 4 5 5 3 4 6 7 7 5 5 5 6 7 6 5 7 7 13 16 18 20 22 22 22 22 23
9 10 11 11 11 10 11 10 9 10 11 9 10 9 9 9 7 7 7 5 10 6 5 7 8 8 8 7 6 6 7 5 5 8 5 7 12 17 21 25 24 24 24
11 12 13 12 12 13 13 13 13 13 12 12 12 11 11 10 9 9 9 8 6 5 10 7 8 8 9 9 9 9 7 8 8 8 7 9 8 10 15 23 24 24 25
11 13 15 16 14 14 15 15 16 15 16 15 15 14 14 13 12 12 11 11 9 7 5 8 5 5 5 7 8 9 10 8 7 8 9 9 12 13 13 13 22 24 25
12 13 15 17 16 16 18 18 19 19 19 20 20 18 17 16 15 14 14 14 12 9 8 6 7 7 2 3 6 7 8 9 10 10 7 2 4 13 15 15 14 18 22
13 14 15 16 17 17 19 20 21 23 23 22 20 21 22 20 19 18 18 17 17 15 10 8 5 4 5 3 5 8 8 8 10 11 10 5 4 5 7 16 20 17 20
16 15 15 16 18 18 19 20 21 22 23 22 24 23 26 24 23 21 20 19 19 16 13 11 6 5 5 5 1 6 9 11 10 11 12 12 8 6 8 11 14 17 17
17 17 16 16 16 17 19 20 20 23 25 23 24 20 19 27 23 20 19 19 18 17 14 10 8 5 5 6 5 6 1 11 14 12 11 13 12 11 9 9 11 18 14
17 17 17 16 16 15 17 18 18 21 22 26 23 24 28 27 27 24 14 20 20 18 14 11 9 8 7 7 4 7 3 7 11 10 11 10 12 13 11 11 10 10 11
17 17 15 16 14 13 14 15 15 15 17 21 21 22 20 23 25 24 27 14 18 17 13 12 10 8 9 8 8 4 1 6 7 9 9 12 13 14 13 12 12 9 11
19 18 15 12 9 9 8 7 6 8 9 9 10 10 10 7 12 15 22 25 21 18 15 10 10 11 10 10 7 1 4 3 6 8 7 8 14 12 13 13 12 9 8
19 17 12 9 7 5 4 3 3 2 5 4 6 6 8 9 10 10 11 15 12 13 15 11 11 12 12 10 10 8 7 4 5 5 6 5 2 1 7 9 10 10 12
16 10 8 8 8 7 6 7 8 11 11 7 4 2 1 2 0 1 2 3 5 9 18 17 13 10 10 11 9 3 11 11 3 5 3 2 3 4 4 3 5 8 10
11 8 9 8 5 6 8 8 7 9 13 12 10 7 4 4 4 6 8 7 8 11 16 15 15 13 10 11 11 12 13 8 5 8 6 3 2 2 3 3 5 8 11
9 8 6 4 5 7 10 10 10 7 7 8 8 12 12 10 8 9 11 11 14 16 20 16 16 15 15 13 13 14 17 17 11 12 13 9 6 5 5 4 5 8 11
9 7 7 8 10 12 11 9 11 14 12 10 10 13 13 13 13 14 14 14 16 16 20 19 18 17 19 17 17 18 18 19 19 20 20 16 14 14 14 12 12 12 11
9 11 12 13 14 12 13 12 14 14 13 14 13 14 15 14 14 14 14 15 16 17 18 22 20 19 20 19 19 20 20 19 19 17 19 20 15 17 19 16 16 16 17
12 12 14 13 13 16 18 14 13 14 15 16 16 15 14 13 14 14 15 16 17 17 18 20 22 20 20 19 21 21 21 21 21 22 17 14 17 19 20 19 18 20 20
14 15 16 16 15 15 15 15 15 16 16 15 13 13 14 15 16 17 17 19 19 20 20 21 22 22 20 20 21 22 22 21 23 22 20 22 22 21 23 21 22 24 22
14 15 15 14 15 15 12 14 16 15 15 16 16 16 16 15 17 19 20 21 21 21 21 21 21 21 20 20 21 20 22 20 22 20 21 22 21 21 23 29 29 26 26
14 14 14 15 16 14 9 12 14 17 19 20 20 19 19 18 20 18 19 21 22 22 23 21 20 21 23 20 18 18 17 19 23 18 22 23 19 21 22 22 20 20 24
15 16 15 14 14 15 7 13 16 18 20 21 21 20 20 19 17 20 18 17 20 22 21 23 24 24 23 20 19 20 19 19 20 18 19 19 15 16 15 19 18 17 15
15 15 14 15 16 16 10 13 18 19 19 20 20 20 21 22 19 15 18 19 19 20 21 21 24 24 23 21 21 21 22 22 20 17 18 19 14 17 15 15 18 16 17
15 15 14 16 18 18 15 17 18 19 19 20 20 20 18 19 20 17 18 20 21 22 19 23 26 26 25 24 24 19 19 19 20 21 20 19 16 17 18 17 16 17 17
16 14 16 17 18 18 16 18 18 18 19 18 17 18 18 20 20 17 18 17 21 22 21 19 17 18 28 26 28 26 22 22 20 18 19 19 17 16 16 17 17 16 17
Wind_Direction
315 314 318 312 313 312 306 306 308 309 304 290 282 275 270 268 267 278 273 109 26 19 36 20 -0 341 332 340 356 351 332 315 272 247 238 235 227 222 217 212 209 206 203
309 310 308 307 303 303 300 293 297 293 288 288 273 264 267 271 256 264 262 165 119 65 45 44 43 36 10 349 338 347 344 321 300 269 250 246 240 235 231 224 216 209 206
301 301 301 303 303 303 291 276 273 266 269 261 258 252 250 242 245 237 244 251 160 136 78 51 45 43 40 28 14 354 336 325 302 280 267 254 246 244 240 235 224 214 207
297 297 295 296 298 297 295 290 283 275 267 270 268 259 246 246 237 229 228 230 223 214 151 93 83 64 50 39 25 6 335 312 311 297 279 263 264 265 250 241 225 219 215
299 291 289 289 290 284 280 276 275 271 274 265 262 257 256 254 243 242 236 221 223 229 205 137 130 107 56 27 10 360 349 330 286 291 290 263 249 254 261 245 228 227 230
316 303 295 292 290 283 281 278 274 272 265 269 270 260 249 247 245 240 235 231 222 218 224 210 180 174 165 345 337 331 328 321 317 297 275 42 323 245 240 246 246 234 237
330 320 307 300 295 287 283 280 275 268 264 260 264 260 256 248 245 241 234 232 228 216 216 215 217 233 190 186 277 333 317 316 307 294 295 255 255 266 275 238 234 235 232
331 315 308 301 297 293 287 281 279 276 268 258 257 260 263 258 234 232 239 231 231 223 216 223 216 206 242 275 313 308 317 327 311 286 275 254 236 244 262 269 258 245 236
324 317 308 299 294 291 288 288 282 279 276 269 255 241 265 251 253 239 211 227 224 225 228 212 232 219 229 254 253 209 34 324 319 295 278 267 222 228 247 254 276 256 264
311 311 310 305 300 296 292 290 287 285 280 276 269 261 243 265 272 269 217 211 218 214 215 236 226 237 234 243 227 253 288 310 315 301 272 269 250 235 245 254 256 274 265
318 315 313 309 306 306 309 305 302 292 282 277 277 279 280 257 256 255 257 216 211 212 217 216 249 258 245 251 249 216 69 329 329 324 268 254 252 245 243 249 258 270 282
321 317 317 307 314 326 332 337 353 11 359 1 344 346 332 347 318 271 258 257 250 200 205 217 235 247 250 253 240 208 289 320 329 340 341 261 237 233 248 252 251 261 276
320 320 320 317 321 340 358 358 353 7 62 32 32 27 17 11 1 344 332 308 305 269 251 235 228 244 250 240 263 199 215 243 322 341 352 353 56 253 254 253 254 261 270
316 319 308 309 315 311 307 312 16 2 342 330 305 279 272 292 174 196 281 316 311 282 280 264 253 248 249 253 259 232 268 198 266 320 294 91 67 90 64 24 317 292 282
314 306 304 308 347 7 11 0 14 6 354 342 329 319 295 248 243 226 217 248 256 280 280 268 264 248 251 258 261 265 261 209 188 282 252 186 161 106 82 15 331 316 292
313 311 325 330 345 347 348 341 326 301 273 282 287 292 293 290 275 255 255 254 254 262 272 276 279 281 280 274 268 271 264 269 232 231 234 220 233 259 276 281 301 310 308
316 308 312 317 333 339 325 290 275 265 273 286 295 291 291 289 281 280 275 267 265 268 271 277 274 272 269 266 271 271 267 260 256 219 223 239 254 270 273 271 279 281 285
319 328 338 331 312 293 298 296 291 286 282 292 295 295 294 293 289 283 280 276 277 278 278 278 277 276 271 269 266 266 265 261 258 250 227 224 241 260 262 261 268 272 273
326 316 300 301 311 311 306 297 288 286 291 294 295 293 292 289 283 282 282 282 280 276 272 272 274 273 272 271 270 265 266 266 265 268 264 237 249 255 248 251 256 264 263
311 314 314 313 318 316 310 302 304 301 296 294 293 288 289 286 284 284 283 283 279 276 272 269 269 269 265 265 264 265 262 257 258 258 257 261 269 254 244 246 251 253 255
321 321 318 319 316 312 324 327 313 305 294 293 290 288 285 293 296 285 284 282 280 275 271 269 267 268 268 266 263 268 270 271 270 267 265 264 258 252 247 244 249 242 248
329 323 323 322 320 317 27 341 327 308 300 293 292 291 291 285 278 272 269 266 269 277 277 279 277 270 269 274 269 261 260 260 262 255 256 258 265 270 260 256 254 242 235
324 323 324 326 321 314 18 330 321 305 300 295 294 294 293 290 282 276 278 269 259 259 260 266 268 266 269 269 270 270 266 262 261 262 265 263 259 267 272 271 265 252 249
322 323 325 323 317 313 342 323 318 302 297 295 292 290 289 286 286 295 285 281 274 267 260 252 251 258 261 266 265 265 265 266 265 261 261 264 260 262 266 271 265 267 249
322 324 323 322 316 316 328 323 317 309 299 297 294 291 298 289 284 287 284 281 277 274 269 253 254 259 259 260 261 269 262 256 255 251 249 252 254 257 262 261 259 255 255
318 326 325 320 323 313 325 324 319 311 306 299 297 290 279 273 282 279 279 284 288 285 290 289 276 261 248 251 249 248 252 252 252 256 244 252 256 253 258 248 245 243 245